| time (UTC) | temp F | wind direction | speed MPH | gust MPH | rain 1hr in | rain 24hr in | rain mn in | humidity % | barometer mb |
| 20260906215820 | 91 | 136 | 4.0 | 5.0 | 0.00 | 0.00 | 0.00 | 31 | 1016.3 |
| 20260906215316 | 91 | 10 | 1.0 | 9.0 | 0.00 | 0.00 | 0.00 | 32 | 1016.4 |
| 20260906214812 | 90 | 41 | 5.0 | 9.0 | 0.00 | 0.00 | 0.00 | 32 | 1016.4 |
| 20260906214309 | 90 | 271 | 2.0 | 9.0 | 0.00 | 0.00 | 0.00 | 32 | 1016.5 |
| 20260906213805 | 90 | 42 | 7.0 | 10.0 | 0.00 | 0.00 | 0.00 | 31 | 1016.6 |
| 20260906213301 | 90 | 325 | 3.0 | 11.0 | 0.00 | 0.00 | 0.00 | 32 | 1016.7 |
| 20260906212757 | 90 | 49 | 6.0 | 11.0 | 0.00 | 0.00 | 0.00 | 32 | 1016.9 |
| 20260906212253 | 90 | 15 | 1.0 | 11.0 | 0.00 | 0.00 | 0.00 | 32 | 1017.0 |
| 20260906211749 | 90 | 360 | 0.0 | 11.0 | 0.00 | 0.00 | 0.00 | 32 | 1017.2 |
| 20260906211246 | 89 | 63 | 2.0 | 13.0 | 0.00 | 0.00 | 0.00 | 33 | 1017.1 |
| 20260906210742 | 89 | 70 | 5.0 | 13.0 | 0.00 | 0.00 | 0.00 | 32 | 1017.3 |
| 20260906210239 | 90 | 56 | 1.0 | 8.0 | 0.00 | 0.00 | 0.00 | 32 | 1017.4 |
| 20260906205735 | 89 | 350 | 2.0 | 9.0 | 0.00 | 0.00 | 0.00 | 33 | 1017.4 |
| 20260906205231 | 89 | 54 | 1.0 | 13.0 | 0.00 | 0.00 | 0.00 | 32 | 1017.5 |
| 20260906204728 | 90 | 53 | 10.0 | 12.0 | 0.00 | 0.00 | 0.00 | 32 | 1017.6 |
| 20260906204224 | 90 | 63 | 5.0 | 12.0 | 0.00 | 0.00 | 0.00 | 32 | 1017.7 |
| 20260906203720 | 89 | 39 | 6.0 | 8.0 | 0.00 | 0.00 | 0.00 | 34 | 1017.8 |
| 20260906203215 | 88 | 290 | 0.0 | 9.0 | 0.00 | 0.00 | 0.00 | 36 | 1017.8 |
| 20260906202712 | 89 | 137 | 4.0 | 10.0 | 0.00 | 0.00 | 0.00 | 35 | 1018.0 |
| 20260906202208 | 89 | 17 | 5.0 | 10.0 | 0.00 | 0.00 | 0.00 | 35 | 1018.0 |
| 20260906201704 | 87 | 266 | 1.0 | 9.0 | 0.00 | 0.00 | 0.00 | 38 | 1018.0 |
| 20260906201200 | 88 | 352 | 2.0 | 9.0 | 0.00 | 0.00 | 0.00 | 37 | 1018.0 |
| 20260906200657 | 87 | 16 | 2.0 | 9.0 | 0.00 | 0.00 | 0.00 | 37 | 1018.1 |
| 20260906200156 | 87 | 16 | 3.0 | 10.0 | 0.00 | 0.00 | 0.00 | 37 | 1018.2 |
| 20260906195653 | 86 | 44 | 5.0 | 12.0 | 0.00 | 0.00 | 0.00 | 38 | 1018.2 |
| 20260906195148 | 87 | 188 | 3.0 | 12.0 | 0.00 | 0.00 | 0.00 | 37 | 1018.2 |
| 20260906194645 | 87 | 42 | 6.0 | 8.0 | 0.00 | 0.00 | 0.00 | 37 | 1018.2 |
| 20260906194142 | 86 | 5 | 1.0 | 9.0 | 0.00 | 0.00 | 0.00 | 36 | 1018.3 |
| 20260906193637 | 86 | 32 | 5.0 | 11.0 | 0.00 | 0.00 | 0.00 | 34 | 1018.4 |
| 20260906193134 | 86 | 346 | 2.0 | 11.0 | 0.00 | 0.00 | 0.00 | 36 | 1018.5 |
| 20260906192630 | 86 | 91 | 4.0 | 9.0 | 0.00 | 0.00 | 0.00 | 33 | 1018.6 |
| 20260906192127 | 86 | 33 | 6.0 | 9.0 | 0.00 | 0.00 | 0.00 | 31 | 1018.7 |
| 20260906191623 | 86 | 115 | 1.0 | 11.0 | 0.00 | 0.00 | 0.00 | 33 | 1018.7 |
| 20260906191119 | 85 | 61 | 2.0 | 11.0 | 0.00 | 0.00 | 0.00 | 37 | 1018.8 |
| 20260906190615 | 85 | 136 | 4.0 | 8.0 | 0.00 | 0.00 | 0.00 | 36 | 1018.8 |
| 20260906190111 | 85 | 183 | 3.0 | 8.0 | 0.00 | 0.00 | 0.00 | 37 | 1018.9 |
| 20260906185608 | 84 | 182 | 3.0 | 8.0 | 0.00 | 0.00 | 0.00 | 38 | 1019.1 |
| 20260906185105 | 85 | 92 | 7.0 | 8.0 | 0.00 | 0.00 | 0.00 | 39 | 1019.2 |
| 20260906184601 | 84 | 197 | 2.0 | 7.0 | 0.00 | 0.00 | 0.00 | 41 | 1019.2 |
| 20260906184057 | 83 | 205 | 1.0 | 7.0 | 0.00 | 0.00 | 0.00 | 42 | 1019.4 |
| 20260906183553 | 83 | 167 | 4.0 | 7.0 | 0.00 | 0.00 | 0.00 | 41 | 1019.6 |
| 20260906183050 | 83 | 89 | 3.0 | 7.0 | 0.00 | 0.00 | 0.00 | 40 | 1019.8 |
| 20260906182546 | 82 | 61 | 4.0 | 6.0 | 0.00 | 0.00 | 0.00 | 42 | 1019.9 |
| 20260906182042 | 82 | 172 | 5.0 | 6.0 | 0.00 | 0.00 | 0.00 | 40 | 1019.9 |
| 20260906181539 | 83 | 104 | 2.0 | 8.0 | 0.00 | 0.00 | 0.00 | 40 | 1020.1 |
| 20260906181035 | 83 | 119 | 5.0 | 7.0 | 0.00 | 0.00 | 0.00 | 40 | 1020.1 |
| 20260906180532 | 83 | 100 | 3.0 | 7.0 | 0.00 | 0.00 | 0.00 | 40 | 1020.2 |
| 20260906180028 | 83 | 63 | 1.0 | 7.0 | 0.00 | 0.00 | 0.00 | 38 | 1020.3 |
| 20260906175524 | 83 | 35 | 2.0 | 6.0 | 0.00 | 0.00 | 0.00 | 39 | 1020.3 |
| 20260906175020 | 80 | 31 | 2.0 | 6.0 | 0.00 | 0.00 | 0.00 | 42 | 1020.4 |
| 20260906174516 | 81 | 132 | 4.0 | 4.0 | 0.00 | 0.00 | 0.00 | 42 | 1020.5 |
| 20260906174012 | 80 | 141 | 2.0 | 4.0 | 0.00 | 0.00 | 0.00 | 45 | 1020.6 |
| 20260906173508 | 80 | 202 | 0.0 | 6.0 | 0.00 | 0.00 | 0.00 | 45 | 1020.8 |
| 20260906173004 | 80 | 15 | 0.0 | 6.0 | 0.00 | 0.00 | 0.00 | 48 | 1020.8 |
| 20260906172501 | 79 | 136 | 0.0 | 4.0 | 0.00 | 0.00 | 0.00 | 48 | 1020.8 |
| 20260906171957 | 79 | 193 | 1.0 | 4.0 | 0.00 | 0.00 | 0.00 | 47 | 1021.0 |
| 20260906171453 | 80 | 44 | 1.0 | 4.0 | 0.00 | 0.00 | 0.00 | 48 | 1021.1 |
| 20260906170949 | 80 | 246 | 0.0 | 4.0 | 0.00 | 0.00 | 0.00 | 48 | 1021.1 |
| 20260906170446 | 78 | 307 | 1.0 | 3.0 | 0.00 | 0.00 | 0.00 | 51 | 1021.3 |
| 20260906165942 | 78 | 57 | 1.0 | 3.0 | 0.00 | 0.00 | 0.00 | 50 | 1021.5 |
| 20260906165438 | 79 | 48 | 0.0 | 3.0 | 0.00 | 0.00 | 0.00 | 50 | 1021.6 |
| 20260906164934 | 78 | 61 | 1.0 | 4.0 | 0.00 | 0.00 | 0.00 | 49 | 1021.6 |
| 20260906164431 | 78 | 11 | 3.0 | 4.0 | 0.00 | 0.00 | 0.00 | 51 | 1021.6 |
| 20260906163927 | 78 | 327 | 0.0 | 3.0 | 0.00 | 0.00 | 0.00 | 51 | 1021.6 |
| 20260906163423 | 78 | 360 | 0.0 | 6.0 | 0.00 | 0.00 | 0.00 | 51 | 1021.6 |
| 20260906162919 | 77 | 5 | 1.0 | 6.0 | 0.00 | 0.00 | 0.00 | 51 | 1021.5 |
| 20260906162415 | 77 | 343 | 1.0 | 4.0 | 0.00 | 0.00 | 0.00 | 54 | 1021.5 |
| 20260906161912 | 76 | 304 | 1.0 | 4.0 | 0.00 | 0.00 | 0.00 | 57 | 1021.4 |
| 20260906161408 | 75 | 151 | 0.0 | 3.0 | 0.00 | 0.00 | 0.00 | 57 | 1021.4 |
| 20260906160904 | 75 | 53 | 1.0 | 4.0 | 0.00 | 0.00 | 0.00 | 56 | 1021.4 |
| 20260906160401 | 76 | 360 | 0.0 | 5.0 | 0.00 | 0.00 | 0.00 | 56 | 1021.5 |
| 20260906155856 | 76 | 51 | 2.0 | 5.0 | 0.00 | 0.00 | 0.00 | 57 | 1021.4 |
| 20260906155353 | 75 | 5 | 1.0 | 3.0 | 0.00 | 0.00 | 0.00 | 58 | 1021.4 |
| 20260906154849 | 75 | 324 | 1.0 | 5.0 | 0.00 | 0.00 | 0.00 | 58 | 1021.4 |
| 20260906154345 | 75 | 38 | 2.0 | 5.0 | 0.00 | 0.00 | 0.00 | 59 | 1021.4 |
| 20260906153841 | 75 | 32 | 2.0 | 7.0 | 0.00 | 0.00 | 0.00 | 57 | 1021.5 |
| 20260906153338 | 75 | 343 | 2.0 | 7.0 | 0.00 | 0.00 | 0.00 | 57 | 1021.6 |
| 20260906152834 | 74 | 330 | 0.0 | 5.0 | 0.00 | 0.00 | 0.00 | 59 | 1021.6 |
| 20260906152330 | 74 | 17 | 3.0 | 5.0 | 0.00 | 0.00 | 0.00 | 58 | 1021.6 |
| 20260906151826 | 74 | 311 | 1.0 | 4.0 | 0.00 | 0.00 | 0.00 | 60 | 1021.6 |
| 20260906151323 | 74 | 299 | 3.0 | 5.0 | 0.00 | 0.00 | 0.00 | 59 | 1021.6 |
| 20260906150820 | 74 | 333 | 1.0 | 5.0 | 0.00 | 0.00 | 0.00 | 59 | 1021.6 |
| 20260906150316 | 74 | 284 | 4.0 | 5.0 | 0.00 | 0.00 | 0.00 | 62 | 1021.6 |
| 20260906145812 | 73 | 307 | 2.0 | 4.0 | 0.00 | 0.00 | 0.00 | 63 | 1021.5 |
| 20260906145309 | 72 | 308 | 2.0 | 5.0 | 0.00 | 0.00 | 0.00 | 64 | 1021.3 |
| 20260906144805 | 72 | 296 | 1.0 | 5.0 | 0.00 | 0.00 | 0.00 | 65 | 1021.5 |
| 20260906144301 | 71 | 19 | 1.0 | 5.0 | 0.00 | 0.00 | 0.00 | 66 | 1021.5 |
| 20260906143758 | 70 | 281 | 4.0 | 5.0 | 0.00 | 0.00 | 0.00 | 68 | 1021.4 |
| 20260906143254 | 69 | 82 | 1.0 | 4.0 | 0.00 | 0.00 | 0.00 | 70 | 1021.5 |
| 20260906142750 | 68 | 294 | 0.0 | 4.0 | 0.00 | 0.00 | 0.00 | 71 | 1021.4 |
| 20260906142247 | 68 | 302 | 0.0 | 2.0 | 0.00 | 0.00 | 0.00 | 71 | 1021.3 |
| 20260906141743 | 67 | 311 | 1.0 | 4.0 | 0.00 | 0.00 | 0.00 | 72 | 1021.3 |
| 20260906141240 | 67 | 240 | 2.0 | 4.0 | 0.00 | 0.00 | 0.00 | 72 | 1021.4 |
| 20260906140736 | 66 | 232 | 2.0 | 4.0 | 0.00 | 0.00 | 0.00 | 72 | 1021.5 |
| 20260906140232 | 66 | 281 | 1.0 | 4.0 | 0.00 | 0.00 | 0.00 | 72 | 1021.5 |
| 20260906135729 | 65 | 242 | 2.0 | 4.0 | 0.00 | 0.00 | 0.00 | 72 | 1021.5 |
| 20260906135225 | 65 | 268 | 1.0 | 4.0 | 0.00 | 0.00 | 0.00 | 72 | 1021.5 |
| 20260906134721 | 65 | 258 | 2.0 | 6.0 | 0.00 | 0.00 | 0.00 | 73 | 1021.5 |
| 20260906134217 | 65 | 308 | 1.0 | 6.0 | 0.00 | 0.00 | 0.00 | 73 | 1021.4 |
| 20260906133714 | 65 | 270 | 3.0 | 5.0 | 0.00 | 0.00 | 0.00 | 73 | 1021.4 |
| 20260906133211 | 65 | 309 | 2.0 | 3.0 | 0.00 | 0.00 | 0.00 | 74 | 1021.3 |
| 20260906132707 | 65 | 295 | 1.0 | 2.0 | 0.00 | 0.00 | 0.00 | 74 | 1021.3 |
| 20260906132204 | 65 | 281 | 1.0 | 3.0 | 0.00 | 0.00 | 0.00 | 75 | 1021.3 |
| 20260906131700 | 65 | 303 | 3.0 | 4.0 | 0.00 | 0.00 | 0.00 | 75 | 1021.1 |
| 20260906131156 | 65 | 294 | 0.0 | 4.0 | 0.00 | 0.00 | 0.00 | 76 | 1021.1 |
| 20260906130652 | 65 | 309 | 1.0 | 2.0 | 0.00 | 0.00 | 0.00 | 76 | 1021.1 |
| 20260906130149 | 65 | 289 | 0.0 | 3.0 | 0.00 | 0.00 | 0.00 | 76 | 1021.0 |
| 20260906125645 | 65 | 289 | 1.0 | 3.0 | 0.00 | 0.00 | 0.00 | 76 | 1020.9 |
| 20260906125141 | 65 | 277 | 2.0 | 2.0 | 0.00 | 0.00 | 0.00 | 76 | 1020.8 |
| 20260906124637 | 65 | 292 | 2.0 | 2.0 | 0.00 | 0.00 | 0.00 | 76 | 1020.9 |
| 20260906124133 | 65 | 309 | 1.0 | 2.0 | 0.00 | 0.00 | 0.00 | 76 | 1020.9 |
| 20260906123630 | 65 | 0 | 0.0 | 2.0 | 0.00 | 0.00 | 0.00 | 76 | 1021.0 |
| 20260906123126 | 65 | 9 | 1.0 | 2.0 | 0.00 | 0.00 | 0.00 | 76 | 1021.0 |
| 20260906122622 | 65 | 9 | 1.0 | 2.0 | 0.00 | 0.00 | 0.00 | 76 | 1021.1 |
| 20260906122118 | 65 | 0 | 0.0 | 2.0 | 0.00 | 0.00 | 0.00 | 75 | 1021.0 |
| 20260906121615 | 65 | 5 | 1.0 | 2.0 | 0.00 | 0.00 | 0.00 | 75 | 1020.9 |
| 20260906121111 | 65 | 317 | 0.0 | 3.0 | 0.00 | 0.00 | 0.00 | 75 | 1021.0 |
| 20260906120607 | 65 | 316 | 1.0 | 3.0 | 0.00 | 0.00 | 0.00 | 74 | 1021.0 |
| 20260906115559 | 66 | 324 | 1.0 | 3.0 | 0.00 | 0.00 | 0.00 | 74 | 1021.0 |
| 20260906115055 | 66 | 0 | 0.0 | 4.0 | 0.00 | 0.00 | 0.00 | 73 | 1020.9 |
| 20260906114552 | 66 | 345 | 2.0 | 4.0 | 0.00 | 0.00 | 0.00 | 73 | 1020.8 |
| 20260906114049 | 66 | 22 | 2.0 | 4.0 | 0.00 | 0.00 | 0.00 | 72 | 1020.9 |
| 20260906113544 | 66 | 18 | 3.0 | 4.0 | 0.00 | 0.00 | 0.00 | 71 | 1021.0 |
| 20260906113041 | 66 | 343 | 1.0 | 5.0 | 0.00 | 0.00 | 0.00 | 71 | 1021.0 |
| 20260906112537 | 66 | 315 | 0.0 | 5.0 | 0.00 | 0.00 | 0.00 | 71 | 1021.0 |
| 20260906112036 | 67 | 44 | 0.0 | 4.0 | 0.00 | 0.00 | 0.00 | 70 | 1020.9 |
| 20260906111532 | 67 | 352 | 1.0 | 3.0 | 0.00 | 0.00 | 0.00 | 69 | 1020.8 |
| 20260906111029 | 67 | 323 | 1.0 | 3.0 | 0.00 | 0.00 | 0.00 | 69 | 1020.8 |
| 20260906110525 | 67 | 339 | 0.0 | 4.0 | 0.00 | 0.00 | 0.00 | 68 | 1020.8 |
| 20260906110021 | 67 | 308 | 0.0 | 6.0 | 0.00 | 0.00 | 0.00 | 67 | 1020.6 |
| 20260906105518 | 67 | 313 | 5.0 | 6.0 | 0.00 | 0.00 | 0.00 | 66 | 1020.6 |
| 20260906105014 | 67 | 326 | 4.0 | 7.0 | 0.00 | 0.00 | 0.00 | 65 | 1020.5 |
| 20260906104509 | 68 | 348 | 4.0 | 7.0 | 0.00 | 0.00 | 0.00 | 65 | 1020.4 |
| 20260906104006 | 68 | 311 | 4.0 | 6.0 | 0.00 | 0.00 | 0.00 | 64 | 1020.3 |
| 20260906103502 | 68 | 301 | 2.0 | 6.0 | 0.00 | 0.00 | 0.00 | 63 | 1020.4 |
| 20260906102959 | 68 | 308 | 3.0 | 5.0 | 0.00 | 0.00 | 0.00 | 61 | 1020.4 |
| 20260906102455 | 69 | 309 | 2.0 | 4.0 | 0.00 | 0.00 | 0.00 | 60 | 1020.4 |
| 20260906101951 | 69 | 308 | 1.0 | 4.0 | 0.00 | 0.00 | 0.00 | 59 | 1020.4 |
| 20260906101447 | 69 | 321 | 2.0 | 4.0 | 0.00 | 0.00 | 0.00 | 58 | 1020.3 |
| 20260906100943 | 69 | 329 | 0.0 | 3.0 | 0.00 | 0.00 | 0.00 | 57 | 1020.2 |
| 20260906100440 | 70 | 321 | 0.0 | 3.0 | 0.00 | 0.00 | 0.00 | 57 | 1020.3 |
| 20260906095940 | 70 | 311 | 1.0 | 4.0 | 0.00 | 0.00 | 0.00 | 56 | 1020.4 |
| 20260906095435 | 70 | 312 | 1.0 | 4.0 | 0.00 | 0.00 | 0.00 | 56 | 1020.5 |
| 20260906094931 | 70 | 9 | 1.0 | 3.0 | 0.00 | 0.00 | 0.00 | 55 | 1020.4 |
| 20260906094428 | 70 | 10 | 0.0 | 3.0 | 0.00 | 0.00 | 0.00 | 55 | 1020.4 |
| 20260906093924 | 70 | 295 | 0.0 | 3.0 | 0.00 | 0.00 | 0.00 | 54 | 1020.4 |
| 20260906093421 | 71 | 348 | 0.0 | 3.0 | 0.00 | 0.00 | 0.00 | 54 | 1020.5 |
| 20260906092917 | 71 | 340 | 0.0 | 4.0 | 0.00 | 0.00 | 0.00 | 53 | 1020.4 |
| 20260906092413 | 71 | 336 | 3.0 | 4.0 | 0.00 | 0.00 | 0.00 | 52 | 1020.3 |
| 20260906091909 | 71 | 338 | 3.0 | 4.0 | 0.00 | 0.00 | 0.00 | 51 | 1020.3 |
| 20260906091405 | 71 | 325 | 1.0 | 4.0 | 0.00 | 0.00 | 0.00 | 50 | 1020.3 |
| 20260906090902 | 72 | 304 | 3.0 | 4.0 | 0.00 | 0.00 | 0.00 | 49 | 1020.2 |
| 20260906090359 | 72 | 309 | 2.0 | 4.0 | 0.00 | 0.00 | 0.00 | 49 | 1020.1 |
| 20260906085855 | 72 | 320 | 0.0 | 2.0 | 0.00 | 0.00 | 0.00 | 48 | 1020.0 |
| 20260906085352 | 72 | 11 | 1.0 | 5.0 | 0.00 | 0.00 | 0.00 | 48 | 1020.0 |
| 20260906084848 | 72 | 0 | 0.0 | 5.0 | 0.00 | 0.00 | 0.00 | 48 | 1020.0 |
| 20260906084344 | 72 | 5 | 1.0 | 3.0 | 0.00 | 0.00 | 0.00 | 48 | 1020.1 |
| 20260906083841 | 73 | 352 | 0.0 | 2.0 | 0.00 | 0.00 | 0.00 | 48 | 1019.9 |
| 20260906083338 | 73 | 152 | 0.0 | 3.0 | 0.00 | 0.00 | 0.00 | 48 | 1019.9 |
| 20260906082834 | 73 | 101 | 0.0 | 3.0 | 0.00 | 0.00 | 0.00 | 48 | 1020.0 |
| 20260906082331 | 73 | 107 | 2.0 | 5.0 | 0.00 | 0.00 | 0.00 | 47 | 1019.9 |
| 20260906081827 | 73 | 186 | 5.0 | 5.0 | 0.00 | 0.00 | 0.00 | 47 | 1020.0 |
| 20260906081323 | 73 | 88 | 3.0 | 3.0 | 0.00 | 0.00 | 0.00 | 46 | 1020.0 |
| 20260906080820 | 74 | 66 | 2.0 | 3.0 | 0.00 | 0.00 | 0.00 | 46 | 1019.9 |
| 20260906080316 | 74 | 188 | 0.0 | 4.0 | 0.00 | 0.00 | 0.00 | 46 | 1019.9 |
| 20260906075813 | 74 | 188 | 2.0 | 5.0 | 0.00 | 0.00 | 0.00 | 46 | 1019.9 |
| 20260906075309 | 74 | 156 | 3.0 | 5.0 | 0.00 | 0.00 | 0.00 | 46 | 1019.8 |
| 20260906074805 | 75 | 184 | 2.0 | 4.0 | 0.00 | 0.00 | 0.00 | 44 | 1019.6 |
| 20260906074301 | 75 | 291 | 2.0 | 4.0 | 0.00 | 0.00 | 0.00 | 43 | 1019.6 |
| 20260906073758 | 75 | 322 | 1.0 | 8.0 | 0.00 | 0.00 | 0.00 | 42 | 1019.4 |
| 20260906073254 | 74 | 348 | 3.0 | 9.0 | 0.00 | 0.00 | 0.00 | 43 | 1019.3 |
| 20260906072750 | 74 | 346 | 4.0 | 9.0 | 0.00 | 0.00 | 0.00 | 43 | 1019.3 |
| 20260906072246 | 74 | 335 | 5.0 | 8.0 | 0.00 | 0.00 | 0.00 | 43 | 1019.4 |
| 20260906071742 | 74 | 323 | 2.0 | 8.0 | 0.00 | 0.00 | 0.00 | 43 | 1019.3 |
| 20260906071239 | 75 | 312 | 3.0 | 7.0 | 0.00 | 0.00 | 0.00 | 44 | 1019.3 |
| 20260906070735 | 75 | 317 | 2.0 | 6.0 | 0.00 | 0.00 | 0.00 | 44 | 1019.4 |
| 20260906070231 | 75 | 290 | 3.0 | 7.0 | 0.00 | 0.00 | 0.00 | 44 | 1019.5 |
| 20260906065728 | 75 | 303 | 3.0 | 7.0 | 0.00 | 0.00 | 0.00 | 44 | 1019.5 |
| 20260906065225 | 75 | 279 | 3.0 | 5.0 | 0.00 | 0.00 | 0.00 | 44 | 1019.5 |
| 20260906064721 | 76 | 275 | 4.0 | 6.0 | 0.00 | 0.00 | 0.00 | 44 | 1019.7 |
| 20260906064217 | 76 | 296 | 2.0 | 6.0 | 0.00 | 0.00 | 0.00 | 44 | 1019.8 |
| 20260906063713 | 76 | 284 | 2.0 | 6.0 | 0.00 | 0.00 | 0.00 | 43 | 1019.8 |
| 20260906063209 | 76 | 288 | 2.0 | 6.0 | 0.00 | 0.00 | 0.00 | 43 | 1019.9 |
| 20260906062705 | 77 | 277 | 3.0 | 4.0 | 0.00 | 0.00 | 0.00 | 42 | 1019.9 |
| 20260906062202 | 77 | 250 | 3.0 | 4.0 | 0.00 | 0.00 | 0.00 | 41 | 1019.9 |
| 20260906061658 | 77 | 239 | 3.0 | 5.0 | 0.00 | 0.00 | 0.00 | 40 | 1020.0 |
| 20260906061154 | 77 | 246 | 4.0 | 5.0 | 0.00 | 0.00 | 0.00 | 40 | 1020.0 |
| 20260906060654 | 77 | 210 | 3.0 | 5.0 | 0.00 | 0.00 | 0.00 | 39 | 1020.1 |
| 20260906060150 | 77 | 210 | 1.0 | 7.0 | 0.00 | 0.00 | 0.00 | 39 | 1020.2 |
| 20260906055647 | 78 | 213 | 4.0 | 7.0 | 0.00 | 0.00 | 0.00 | 38 | 1020.1 |
| 20260906055143 | 78 | 237 | 2.0 | 4.0 | 0.00 | 0.00 | 0.00 | 37 | 1020.1 |
| 20260906054639 | 78 | 242 | 2.0 | 2.0 | 0.00 | 0.00 | 0.00 | 37 | 1020.0 |
| 20260906054136 | 78 | 0 | 0.0 | 2.0 | 0.00 | 0.00 | 0.00 | 36 | 1019.9 |
| 20260906053632 | 78 | 38 | 1.0 | 2.0 | 0.00 | 0.00 | 0.00 | 36 | 1020.0 |
| 20260906053128 | 78 | 313 | 0.0 | 2.0 | 0.00 | 0.00 | 0.00 | 36 | 1020.2 |
| 20260906052624 | 78 | 308 | 1.0 | 2.0 | 0.00 | 0.00 | 0.00 | 36 | 1020.3 |
| 20260906052120 | 79 | 296 | 0.0 | 2.0 | 0.00 | 0.00 | 0.00 | 36 | 1020.4 |
| 20260906051617 | 79 | 277 | 0.0 | 4.0 | 0.00 | 0.00 | 0.00 | 36 | 1020.5 |
| 20260906051113 | 79 | 284 | 1.0 | 4.0 | 0.00 | 0.00 | 0.00 | 36 | 1020.7 |
| 20260906050609 | 79 | 309 | 1.0 | 2.0 | 0.00 | 0.00 | 0.00 | 36 | 1020.7 |
| 20260906050106 | 79 | 295 | 1.0 | 2.0 | 0.00 | 0.00 | 0.00 | 36 | 1020.9 |
| 20260906045602 | 79 | 261 | 1.0 | 2.0 | 0.00 | 0.00 | 0.00 | 35 | 1021.0 |
| 20260906045058 | 79 | 205 | 0.0 | 2.0 | 0.00 | 0.00 | 0.00 | 35 | 1021.1 |
| 20260906044555 | 79 | 205 | 0.0 | 8.0 | 0.00 | 0.00 | 0.00 | 35 | 1021.1 |
| 20260906044051 | 78 | 171 | 1.0 | 9.0 | 0.00 | 0.00 | 0.00 | 35 | 1021.0 |
| 20260906043547 | 78 | 184 | 3.0 | 9.0 | 0.00 | 0.00 | 0.00 | 35 | 1020.8 |
| 20260906043042 | 79 | 196 | 6.0 | 7.0 | 0.00 | 0.00 | 0.00 | 36 | 1020.7 |
| 20260906042538 | 79 | 196 | 4.0 | 5.0 | 0.00 | 0.00 | 0.00 | 34 | 1020.4 |
| 20260906042035 | 79 | 73 | 1.0 | 1.0 | 0.00 | 0.00 | 0.00 | 34 | 1020.1 |
| 20260906041531 | 79 | 0 | 0.0 | 2.0 | 0.00 | 0.00 | 0.00 | 33 | 1019.7 |
| 20260906041028 | 80 | 44 | 1.0 | 4.0 | 0.00 | 0.00 | 0.00 | 33 | 1019.7 |
| 20260906040524 | 80 | 22 | 2.0 | 4.0 | 0.00 | 0.00 | 0.00 | 33 | 1019.7 |
| 20260906040020 | 80 | 21 | 1.0 | 3.0 | 0.00 | 0.00 | 0.00 | 32 | 1019.6 |
| 20260906035517 | 80 | 352 | 2.0 | 3.0 | 0.00 | 0.00 | 0.00 | 32 | 1019.6 |
| 20260906035013 | 80 | 360 | 0.0 | 3.0 | 0.00 | 0.00 | 0.00 | 32 | 1019.6 |
| 20260906034509 | 80 | 17 | 2.0 | 3.0 | 0.00 | 0.00 | 0.00 | 32 | 1019.5 |
| 20260906034006 | 80 | 22 | 1.0 | 3.0 | 0.00 | 0.00 | 0.00 | 32 | 1019.4 |
| 20260906033502 | 80 | 41 | 1.0 | 3.0 | 0.00 | 0.00 | 0.00 | 32 | 1019.5 |
| 20260906032958 | 81 | 329 | 1.0 | 3.0 | 0.00 | 0.00 | 0.00 | 32 | 1019.4 |
| 20260906032454 | 81 | 348 | 1.0 | 3.0 | 0.00 | 0.00 | 0.00 | 32 | 1019.4 |
| 20260906031951 | 81 | 302 | 1.0 | 3.0 | 0.00 | 0.00 | 0.00 | 32 | 1019.2 |
| 20260906031447 | 81 | 82 | 1.0 | 2.0 | 0.00 | 0.00 | 0.00 | 31 | 1019.2 |
| 20260906030943 | 81 | 83 | 1.0 | 3.0 | 0.00 | 0.00 | 0.00 | 31 | 1019.2 |
| 20260906030439 | 81 | 74 | 1.0 | 4.0 | 0.00 | 0.00 | 0.00 | 31 | 1019.0 |
| 20260906025935 | 82 | 95 | 2.0 | 4.0 | 0.00 | 0.00 | 0.00 | 30 | 1018.8 |
| 20260906025432 | 82 | 184 | 2.0 | 3.0 | 0.00 | 0.00 | 0.00 | 30 | 1018.6 |
| 20260906024928 | 82 | 207 | 1.0 | 2.0 | 0.00 | 0.00 | 0.00 | 30 | 1018.3 |
| 20260906024424 | 82 | 0 | 0.0 | 4.0 | 0.00 | 0.00 | 0.00 | 30 | 1018.2 |
| 20260906023920 | 82 | 327 | 0.0 | 4.0 | 0.00 | 0.00 | 0.00 | 30 | 1018.2 |
| 20260906023417 | 82 | 303 | 0.0 | 4.0 | 0.00 | 0.00 | 0.00 | 30 | 1018.2 |
| 20260906022913 | 83 | 323 | 2.0 | 5.0 | 0.00 | 0.00 | 0.00 | 29 | 1018.2 |
| 20260906022409 | 83 | 281 | 2.0 | 5.0 | 0.00 | 0.00 | 0.00 | 29 | 1018.2 |
| 20260906021905 | 83 | 346 | 1.0 | 8.0 | 0.00 | 0.00 | 0.00 | 29 | 1018.2 |
| 20260906021402 | 83 | 252 | 1.0 | 8.0 | 0.00 | 0.00 | 0.00 | 29 | 1018.1 |
| 20260906020858 | 83 | 310 | 0.0 | 5.0 | 0.00 | 0.00 | 0.00 | 29 | 1018.1 |
| 20260906020354 | 84 | 327 | 2.0 | 6.0 | 0.00 | 0.00 | 0.00 | 28 | 1018.0 |
| 20260906015851 | 84 | 311 | 4.0 | 7.0 | 0.00 | 0.00 | 0.00 | 28 | 1017.9 |
| 20260906015347 | 84 | 283 | 3.0 | 9.0 | 0.00 | 0.00 | 0.00 | 28 | 1017.9 |
| 20260906014844 | 84 | 305 | 3.0 | 10.0 | 0.00 | 0.00 | 0.00 | 28 | 1017.9 |
| 20260906014340 | 84 | 325 | 8.0 | 10.0 | 0.00 | 0.00 | 0.00 | 27 | 1017.8 |
| 20260906013837 | 85 | 336 | 4.0 | 9.0 | 0.00 | 0.00 | 0.00 | 27 | 1017.7 |
| 20260906013333 | 85 | 296 | 2.0 | 11.0 | 0.00 | 0.00 | 0.00 | 27 | 1017.7 |
| 20260906012829 | 85 | 344 | 5.0 | 12.0 | 0.00 | 0.00 | 0.00 | 27 | 1017.7 |
| 20260906012326 | 86 | 305 | 5.0 | 17.0 | 0.00 | 0.00 | 0.00 | 26 | 1017.7 |
| 20260906011822 | 86 | 306 | 9.0 | 17.0 | 0.00 | 0.00 | 0.00 | 26 | 1017.8 |
| 20260906011318 | 87 | 304 | 8.0 | 13.0 | 0.00 | 0.00 | 0.00 | 26 | 1017.7 |
| 20260906010815 | 87 | 48 | 10.0 | 13.0 | 0.00 | 0.00 | 0.00 | 25 | 1017.8 |
| 20260906010311 | 88 | 306 | 4.0 | 13.0 | 0.00 | 0.00 | 0.00 | 24 | 1017.7 |
| 20260906005807 | 88 | 294 | 4.0 | 13.0 | 0.00 | 0.00 | 0.00 | 24 | 1017.7 |
| 20260906005306 | 88 | 311 | 5.0 | 10.0 | 0.00 | 0.00 | 0.00 | 24 | 1017.8 |
| 20260906004759 | 88 | 275 | 1.0 | 10.0 | 0.00 | 0.00 | 0.00 | 24 | 1017.7 |
| 20260906004255 | 88 | 299 | 8.0 | 11.0 | 0.00 | 0.00 | 0.00 | 23 | 1017.7 |
| 20260906003752 | 89 | 320 | 3.0 | 14.0 | 0.00 | 0.00 | 0.00 | 23 | 1017.7 |
| 20260906003248 | 89 | 302 | 4.0 | 14.0 | 0.00 | 0.00 | 0.00 | 23 | 1017.7 |
| 20260906002745 | 89 | 360 | 11.0 | 13.0 | 0.00 | 0.00 | 0.00 | 23 | 1017.7 |
| 20260906002241 | 90 | 302 | 3.0 | 6.0 | 0.00 | 0.00 | 0.00 | 23 | 1017.7 |
| 20260906001737 | 90 | 287 | 2.0 | 3.0 | 0.00 | 0.00 | 0.00 | 23 | 1017.7 |
| 20260906001234 | 90 | 294 | 1.0 | 2.0 | 0.00 | 0.00 | 0.00 | 22 | 1017.6 |
| 20260906000730 | 90 | 242 | 2.0 | 3.0 | 0.00 | 0.00 | 0.00 | 21 | 1017.6 |
| 20260906000227 | 91 | 298 | 1.0 | 3.0 | 0.00 | 0.00 | 0.00 | 22 | 1017.6 |
| 20260905235723 | 91 | 327 | 2.0 | 3.0 | 0.00 | 0.00 | 0.00 | 21 | 1017.5 |
| 20260905235219 | 91 | 318 | 0.0 | 3.0 | 0.00 | 0.00 | 0.00 | 22 | 1017.5 |
| 20260905234716 | 91 | 238 | 1.0 | 2.0 | 0.00 | 0.00 | 0.00 | 21 | 1017.5 |
| 20260905234212 | 91 | 194 | 0.0 | 4.0 | 0.00 | 0.00 | 0.00 | 21 | 1017.5 |
| 20260905233708 | 91 | 234 | 1.0 | 4.0 | 0.00 | 0.00 | 0.00 | 21 | 1017.6 |
| 20260905233205 | 91 | 232 | 1.0 | 3.0 | 0.00 | 0.00 | 0.00 | 23 | 1017.5 |
| 20260905232701 | 91 | 201 | 1.0 | 3.0 | 0.00 | 0.00 | 0.00 | 20 | 1017.5 |
| 20260905232158 | 91 | 254 | 3.0 | 3.0 | 0.00 | 0.00 | 0.00 | 21 | 1017.5 |
| 20260905231654 | 91 | 296 | 2.0 | 4.0 | 0.00 | 0.00 | 0.00 | 22 | 1017.5 |
| 20260905231150 | 91 | 300 | 0.0 | 4.0 | 0.00 | 0.00 | 0.00 | 22 | 1017.5 |
| 20260905230646 | 91 | 299 | 0.0 | 3.0 | 0.00 | 0.00 | 0.00 | 22 | 1017.5 |
| 20260905230142 | 90 | 141 | 2.0 | 3.0 | 0.00 | 0.00 | 0.00 | 20 | 1017.5 |
| 20260905225639 | 90 | 190 | 2.0 | 3.0 | 0.00 | 0.00 | 0.00 | 21 | 1017.4 |
| 20260905225136 | 90 | 194 | 2.0 | 4.0 | 0.00 | 0.00 | 0.00 | 20 | 1017.4 |
| 20260905224632 | 90 | 188 | 2.0 | 4.0 | 0.00 | 0.00 | 0.00 | 20 | 1017.5 |
| 20260905224128 | 90 | 188 | 4.0 | 6.0 | 0.00 | 0.00 | 0.00 | 20 | 1017.4 |
| 20260905223624 | 90 | 179 | 2.0 | 6.0 | 0.00 | 0.00 | 0.00 | 20 | 1017.5 |
| 20260905223120 | 90 | 175 | 1.0 | 6.0 | 0.00 | 0.00 | 0.00 | 20 | 1017.5 |
| 20260905222617 | 91 | 122 | 1.0 | 9.0 | 0.00 | 0.00 | 0.00 | 20 | 1017.5 |
| 20260905222112 | 91 | 119 | 4.0 | 9.0 | 0.00 | 0.00 | 0.00 | 20 | 1017.5 |
| 20260905221608 | 91 | 195 | 1.0 | 10.0 | 0.00 | 0.00 | 0.00 | 20 | 1017.5 |
| 20260905221105 | 92 | 123 | 5.0 | 10.0 | 0.00 | 0.00 | 0.00 | 20 | 1017.6 |
| 20260905220602 | 92 | 98 | 1.0 | 7.0 | 0.00 | 0.00 | 0.00 | 20 | 1017.6 |
| 20260905220058 | 91 | 349 | 3.0 | 7.0 | 0.00 | 0.00 | 0.00 | 20 | 1017.6 |